sat.trackr.live / text

‹ back to catalog

STARLINK-32319

NORAD 61528 · 2024-183V

PAYLOAD ACTIVE UNKNOWN

§ Identity

Operator
Country
US
Launch date
2024-10-15
Launch site
AFETR
Launch vehicle
Mass (kg)
RCS (m²)

Purposes: comms

External: N2YO · Heavens-Above · Gunter

§ Orbital elements

Epoch: 2026-09-21T10:44:33.133344Z

Period
94.01 min
Inclination
53.1606°
Eccentricity
0.0001206
Mean motion
15.31721373 rev/d
Perigee alt
469.9 km
Apogee alt
471.5 km
Semi-major
6,848.8 km
B*
-1.8608e-4
RAAN
312.4704°
Arg perigee
83.0861°
Mean anomaly
277.0278°
Rev number
10,963

§ Raw data

STARLINK-323191 61528U 24183V   26264.44760571 -.00006138  00000+0 -18608-3 0  99992 61528  53.1606 312.4704 0001206  83.0861 277.0278 15.31721373109636

JSON: /api/v1/satellites/61528 · /tle

For live sub-satellite position, see the globe view (requires WebGL).

§ Visibility from observer

Set your observer location to see the next 7 days of passes ≥ 10°. The values pass through the URL so the page stays shareable.

No JS? Fill the form by hand. The geolocation button needs JavaScript.